Time,TemperatureF,DewpointF,PressureIn,WindDirection,WindDirectionDegrees,WindSpeedMPH,WindSpeedGustMPH,Humidity,HourlyPrecipIn,Conditions,Clouds,dailyrainin,SoftwareType,DateUTC
2013-03-09 00:01:00,73.2,64.0,30.02,NE,56,0.0,0.0,73,0.00,CLR,,0.00,WeatherDisplay:10.37,2013-03-08 13:01:00,
2013-03-09 00:06:00,73.2,64.0,30.02,ESE,109,0.0,0.0,73,0.00,CLR,,0.00,WeatherDisplay:10.37,2013-03-08 13:06:00,
2013-03-09 00:11:00,73.2,64.0,30.02,SE,134,0.0,0.0,73,0.00,CLR,,0.00,WeatherDisplay:10.37,2013-03-08 13:11:00,
2013-03-09 00:16:00,73.2,64.0,30.02,SE,140,0.0,0.0,73,0.00,CLR,,0.00,WeatherDisplay:10.37,2013-03-08 13:16:00,
2013-03-09 00:21:00,73.2,64.0,30.01,ESE,107,0.0,1.0,73,0.00,CLR,,0.00,WeatherDisplay:10.37,2013-03-08 13:21:00,
2013-03-09 00:26:00,73.2,64.0,30.01,ENE,57,0.0,1.0,73,0.00,CLR,,0.00,WeatherDisplay:10.37,2013-03-08 13:26:00,
2013-03-09 00:31:00,73.2,64.0,30.02,NE,52,0.0,2.0,73,0.00,CLR,,0.00,WeatherDisplay:10.37,2013-03-08 13:31:00,
2013-03-09 00:36:00,73.0,63.9,30.01,NNE,27,0.0,2.0,73,0.00,CLR,,0.00,WeatherDisplay:10.37,2013-03-08 13:36:00,
2013-03-09 00:41:00,73.1,63.9,30.02,NNE,23,0.0,2.0,73,0.00,CLR,,0.00,WeatherDisplay:10.37,2013-03-08 13:41:00,
2013-03-09 00:46:00,73.0,63.9,30.02,NE,36,0.0,2.0,73,0.00,CLR,,0.00,WeatherDisplay:10.37,2013-03-08 13:46:00,
2013-03-09 00:51:00,73.0,63.9,30.01,NE,37,0.0,3.0,73,0.00,CLR,,0.00,WeatherDisplay:10.37,2013-03-08 13:51:00,
2013-03-09 00:56:00,73.0,63.9,30.02,NE,36,0.0,2.0,73,0.00,CLR,,0.00,WeatherDisplay:10.37,2013-03-08 13:56:00,
2013-03-09 01:01:00,72.9,63.7,30.01,NNE,28,0.0,0.0,73,0.00,CLR,,0.00,WeatherDisplay:10.37,2013-03-08 14:01:00,
2013-03-09 01:06:00,72.9,63.7,30.00,NNE,27,0.0,0.0,73,0.00,CLR,,0.00,WeatherDisplay:10.37,2013-03-08 14:06:00,
2013-03-09 01:11:00,72.9,63.7,30.01,NE,37,0.0,2.0,73,0.00,CLR,,0.00,WeatherDisplay:10.37,2013-03-08 14:11:00,
2013-03-09 01:16:00,72.9,63.7,30.01,NE,41,0.0,0.0,73,0.00,CLR,,0.00,WeatherDisplay:10.37,2013-03-08 14:16:00,
2013-03-09 01:21:00,72.8,63.6,30.00,NE,36,0.0,0.0,73,0.00,CLR,,0.00,WeatherDisplay:10.37,2013-03-08 14:21:00,
2013-03-09 01:26:00,72.7,63.5,30.00,NNE,25,0.0,0.0,73,0.00,CLR,,0.00,WeatherDisplay:10.37,2013-03-08 14:26:00,
2013-03-09 01:31:00,72.7,63.5,30.00,NNE,19,0.0,0.0,73,0.00,CLR,,0.00,WeatherDisplay:10.37,2013-03-08 14:31:00,
2013-03-09 01:36:00,72.7,63.5,30.00,NNE,23,0.0,0.0,73,0.00,CLR,,0.00,WeatherDisplay:10.37,2013-03-08 14:36:00,
2013-03-09 01:41:00,72.7,63.5,30.00,NNE,30,0.0,2.0,73,0.00,CLR,,0.00,WeatherDisplay:10.37,2013-03-08 14:41:00,
2013-03-09 01:46:00,72.5,63.4,30.00,NE,46,0.0,0.0,73,0.00,CLR,,0.00,WeatherDisplay:10.37,2013-03-08 14:46:00,
2013-03-09 01:51:00,72.5,63.4,30.00,NE,48,0.0,0.0,73,0.00,CLR,,0.00,WeatherDisplay:10.37,2013-03-08 14:51:00,
2013-03-09 01:56:00,72.5,63.4,30.00,NE,36,0.0,0.0,73,0.00,CLR,,0.00,WeatherDisplay:10.37,2013-03-08 14:56:00,
2013-03-09 02:01:00,72.5,63.4,30.00,NNE,32,0.0,0.0,73,0.00,CLR,,0.00,WeatherDisplay:10.37,2013-03-08 15:01:00,
2013-03-09 02:06:00,72.5,63.4,29.99,NNE,13,0.0,0.0,73,0.00,CLR,,0.00,WeatherDisplay:10.37,2013-03-08 15:06:00,
2013-03-09 02:11:00,72.4,63.2,30.00,NW,325,0.0,0.0,73,0.00,CLR,,0.00,WeatherDisplay:10.37,2013-03-08 15:11:00,
2013-03-09 02:16:00,72.3,63.2,30.00,WNW,289,0.0,0.0,73,0.00,CLR,,0.00,WeatherDisplay:10.37,2013-03-08 15:16:00,
2013-03-09 02:21:00,72.3,63.2,29.99,West,278,0.0,0.0,73,0.00,CLR,,0.00,WeatherDisplay:10.37,2013-03-08 15:21:00,
2013-03-09 02:26:00,72.3,63.2,29.99,West,274,0.0,0.0,73,0.00,CLR,,0.00,WeatherDisplay:10.37,2013-03-08 15:26:00,
2013-03-09 02:31:00,72.1,63.0,29.99,West,262,0.0,0.0,73,0.00,CLR,,0.00,WeatherDisplay:10.37,2013-03-08 15:31:00,
2013-03-09 02:36:00,72.1,63.0,29.99,WNW,300,0.0,0.0,73,0.00,CLR,,0.00,WeatherDisplay:10.37,2013-03-08 15:36:00,
2013-03-09 02:41:00,72.1,63.0,29.99,North,0,0.0,0.0,73,0.00,CLR,,0.00,WeatherDisplay:10.37,2013-03-08 15:41:00,
2013-03-09 02:46:00,72.1,63.0,29.99,NNE,16,0.0,0.0,73,0.00,CLR,,0.00,WeatherDisplay:10.37,2013-03-08 15:46:00,
2013-03-09 02:51:00,72.1,63.0,29.99,North,349,0.0,0.0,73,0.00,CLR,,0.00,WeatherDisplay:10.37,2013-03-08 15:51:00,
2013-03-09 02:56:00,72.1,63.0,29.99,WSW,240,0.0,0.0,73,0.00,CLR,,0.00,WeatherDisplay:10.37,2013-03-08 15:56:00,
2013-03-09 03:01:00,72.1,63.0,29.99,SW,217,0.0,0.0,73,0.00,CLR,,0.00,WeatherDisplay:10.37,2013-03-08 16:01:00,
2013-03-09 03:06:00,72.1,63.0,29.99,SW,216,0.0,0.0,73,0.00,CLR,,0.00,WeatherDisplay:10.37,2013-03-08 16:06:00,
2013-03-09 03:11:00,72.0,62.8,29.99,SW,214,0.0,0.0,73,0.00,CLR,,0.00,WeatherDisplay:10.37,2013-03-08 16:11:00,
2013-03-09 03:16:00,72.1,63.0,29.99,SSW,210,0.0,0.0,73,0.00,CLR,,0.00,WeatherDisplay:10.37,2013-03-08 16:16:00,
2013-03-09 03:21:00,72.1,63.0,29.99,SSW,203,1.0,2.0,73,0.00,CLR,,0.00,WeatherDisplay:10.37,2013-03-08 16:21:00,
2013-03-09 03:26:00,72.0,62.9,29.98,SSW,209,0.0,2.0,73,0.00,CLR,,0.00,WeatherDisplay:10.37,2013-03-08 16:26:00,
2013-03-09 03:31:00,72.0,62.8,29.98,SSW,212,0.0,2.0,73,0.00,CLR,,0.00,WeatherDisplay:10.37,2013-03-08 16:31:00,
2013-03-09 03:36:00,72.0,62.8,29.98,SSW,203,0.0,0.0,73,0.00,CLR,,0.00,WeatherDisplay:10.37,2013-03-08 16:36:00,
2013-03-09 03:41:00,71.9,62.8,29.98,ENE,70,0.0,0.0,73,0.00,CLR,,0.00,WeatherDisplay:10.37,2013-03-08 16:41:00,
2013-03-09 03:46:00,71.8,62.7,29.98,East,94,0.0,0.0,73,0.00,CLR,,0.00,WeatherDisplay:10.37,2013-03-08 16:46:00,
2013-03-09 03:51:00,71.8,62.7,29.98,South,184,0.0,0.0,73,0.00,CLR,,0.00,WeatherDisplay:10.37,2013-03-08 16:51:00,
2013-03-09 03:56:00,71.8,62.7,29.98,SW,217,0.0,0.0,73,0.00,CLR,,0.00,WeatherDisplay:10.37,2013-03-08 16:56:00,
2013-03-09 04:01:00,71.8,62.7,29.98,SSW,212,0.0,0.0,73,0.00,CLR,,0.00,WeatherDisplay:10.37,2013-03-08 17:01:00,
2013-03-09 04:06:00,71.8,62.7,29.97,SSW,208,0.0,0.0,73,0.00,CLR,,0.00,WeatherDisplay:10.37,2013-03-08 17:06:00,
2013-03-09 04:11:00,71.8,62.7,29.98,SW,216,0.0,0.0,73,0.00,CLR,,0.00,WeatherDisplay:10.37,2013-03-08 17:11:00,
2013-03-09 04:16:00,71.8,62.7,29.97,SW,225,0.0,0.0,73,0.00,CLR,,0.00,WeatherDisplay:10.37,2013-03-08 17:16:00,
2013-03-09 04:21:00,71.7,62.6,29.97,SW,214,0.0,0.0,73,0.00,CLR,,0.00,WeatherDisplay:10.37,2013-03-08 17:21:00,
2013-03-09 04:26:00,71.6,62.5,29.97,SSW,210,0.0,0.0,73,0.00,CLR,,0.00,WeatherDisplay:10.37,2013-03-08 17:26:00,
2013-03-09 04:31:00,71.4,62.3,29.98,SW,215,0.0,0.0,73,0.00,CLR,,0.00,WeatherDisplay:10.37,2013-03-08 17:31:00,
2013-03-09 04:36:00,71.4,62.3,29.97,SW,214,0.0,0.0,73,0.00,CLR,,0.00,WeatherDisplay:10.37,2013-03-08 17:36:00,
2013-03-09 04:41:00,71.4,62.3,29.97,SSW,206,0.0,0.0,73,0.00,CLR,,0.00,WeatherDisplay:10.37,2013-03-08 17:41:00,
2013-03-09 04:46:00,71.4,62.3,29.97,SSW,211,0.0,0.0,73,0.00,CLR,,0.00,WeatherDisplay:10.37,2013-03-08 17:46:00,
2013-03-09 04:51:00,71.4,62.3,29.97,SW,215,0.0,0.0,73,0.00,CLR,,0.00,WeatherDisplay:10.37,2013-03-08 17:51:00,
2013-03-09 04:56:00,71.4,62.3,29.97,SSW,213,0.0,0.0,73,0.00,CLR,,0.00,WeatherDisplay:10.37,2013-03-08 17:56:00,
2013-03-09 05:01:00,71.4,62.3,29.97,SSW,210,0.0,0.0,73,0.00,CLR,,0.00,WeatherDisplay:10.37,2013-03-08 18:01:00,
2013-03-09 05:06:00,71.4,62.3,29.97,SSW,204,0.0,0.0,73,0.00,CLR,,0.00,WeatherDisplay:10.37,2013-03-08 18:06:00,
2013-03-09 05:11:00,71.4,62.3,29.97,SW,215,0.0,0.0,73,0.00,CLR,,0.00,WeatherDisplay:10.37,2013-03-08 18:11:00,
2013-03-09 05:16:00,71.4,62.3,29.96,SSW,198,0.0,0.0,73,0.00,CLR,,0.00,WeatherDisplay:10.37,2013-03-08 18:16:00,
2013-03-09 05:21:00,71.4,62.3,29.97,South,178,0.0,0.0,73,0.00,CLR,,0.00,WeatherDisplay:10.37,2013-03-08 18:21:00,
2013-03-09 05:26:00,71.4,62.3,29.97,South,177,0.0,0.0,73,0.00,CLR,,0.00,WeatherDisplay:10.37,2013-03-08 18:26:00,
2013-03-09 05:31:00,71.4,62.3,29.97,South,189,0.0,0.0,73,0.00,CLR,,0.00,WeatherDisplay:10.37,2013-03-08 18:31:00,
2013-03-09 05:36:00,71.4,62.7,29.97,SSW,197,0.0,0.0,74,0.00,CLR,,0.00,WeatherDisplay:10.37,2013-03-08 18:36:00,
2013-03-09 05:41:00,71.4,62.7,29.97,SSW,203,0.0,0.0,74,0.00,CLR,,0.00,WeatherDisplay:10.37,2013-03-08 18:41:00,
2013-03-09 05:46:00,71.4,62.7,29.97,SSW,200,0.0,0.0,74,0.00,CLR,,0.00,WeatherDisplay:10.37,2013-03-08 18:46:00,
2013-03-09 05:51:00,71.4,62.7,29.97,SSW,197,0.0,0.0,74,0.00,CLR,,0.00,WeatherDisplay:10.37,2013-03-08 18:51:00,
2013-03-09 05:56:00,71.4,62.7,29.98,SSW,200,0.0,0.0,74,0.00,CLR,,0.00,WeatherDisplay:10.37,2013-03-08 18:56:00,
2013-03-09 06:01:00,71.4,62.7,29.98,SSW,208,0.0,0.0,74,0.00,CLR,,0.00,WeatherDisplay:10.37,2013-03-08 19:01:00,
2013-03-09 06:06:00,71.4,62.7,29.98,South,190,0.0,0.0,74,0.00,CLR,,0.00,WeatherDisplay:10.37,2013-03-08 19:06:00,
2013-03-09 06:11:00,71.3,62.6,29.98,South,173,0.0,0.0,74,0.00,CLR,,0.00,WeatherDisplay:10.37,2013-03-08 19:11:00,
2013-03-09 06:16:00,71.4,62.7,29.98,South,177,0.0,0.0,74,0.00,CLR,,0.00,WeatherDisplay:10.37,2013-03-08 19:16:00,
2013-03-09 06:21:00,71.2,62.5,29.98,South,182,0.0,0.0,74,0.00,CLR,,0.00,WeatherDisplay:10.37,2013-03-08 19:21:00,
2013-03-09 06:26:00,71.2,62.5,29.98,South,177,0.0,0.0,74,0.00,CLR,,0.00,WeatherDisplay:10.37,2013-03-08 19:26:00,
2013-03-09 06:31:00,71.2,62.9,29.98,North,2,0.0,0.0,75,0.00,CLR,,0.00,WeatherDisplay:10.37,2013-03-08 19:31:00,
2013-03-09 06:36:00,71.2,62.9,29.99,NNW,344,0.0,0.0,75,0.00,CLR,,0.00,WeatherDisplay:10.37,2013-03-08 19:36:00,
2013-03-09 06:41:00,71.2,62.9,29.98,NW,311,0.0,0.0,75,0.00,CLR,,0.00,WeatherDisplay:10.37,2013-03-08 19:41:00,
2013-03-09 06:46:00,71.1,62.8,29.98,WNW,294,0.0,0.0,75,0.00,CLR,,0.00,WeatherDisplay:10.37,2013-03-08 19:46:00,
2013-03-09 06:51:00,70.9,63.0,29.99,WNW,287,0.0,0.0,76,0.00,CLR,,0.00,WeatherDisplay:10.37,2013-03-08 19:51:00,
2013-03-09 06:56:00,70.9,62.9,29.99,West,278,0.0,0.0,76,0.00,CLR,,0.00,WeatherDisplay:10.37,2013-03-08 19:56:00,
2013-03-09 07:01:00,70.9,63.3,29.99,West,277,0.0,0.0,77,0.00,CLR,,0.00,WeatherDisplay:10.37,2013-03-08 20:01:00,
2013-03-09 07:06:00,70.7,63.1,29.99,West,277,0.0,0.0,77,0.00,CLR,,0.00,WeatherDisplay:10.37,2013-03-08 20:06:00,
2013-03-09 07:11:00,70.7,63.1,29.99,WNW,290,0.0,0.0,77,0.00,CLR,,0.00,WeatherDisplay:10.37,2013-03-08 20:11:00,
2013-03-09 07:16:00,70.5,63.0,29.99,NW,306,0.0,0.0,77,0.00,CLR,,0.00,WeatherDisplay:10.37,2013-03-08 20:16:00,
2013-03-09 07:21:00,70.5,63.0,29.99,NW,307,0.0,0.0,77,0.00,CLR,,0.00,WeatherDisplay:10.37,2013-03-08 20:21:00,
2013-03-09 07:26:00,70.5,63.0,29.99,WNW,288,0.0,0.0,77,0.00,CLR,,0.00,WeatherDisplay:10.37,2013-03-08 20:26:00,
2013-03-09 07:31:00,70.5,63.0,29.99,WSW,253,0.0,0.0,77,0.00,CLR,,0.00,WeatherDisplay:10.37,2013-03-08 20:31:00,
2013-03-09 07:36:00,70.5,63.3,29.99,SW,223,0.0,0.0,78,0.00,CLR,,0.00,WeatherDisplay:10.37,2013-03-08 20:36:00,
2013-03-09 07:41:00,70.7,63.5,29.99,SW,231,0.0,0.0,78,0.00,CLR,,0.00,WeatherDisplay:10.37,2013-03-08 20:41:00,
2013-03-09 07:46:00,70.9,63.7,29.99,SSW,213,0.0,0.0,78,0.00,CLR,,0.00,WeatherDisplay:10.37,2013-03-08 20:46:00,
2013-03-09 07:51:00,70.9,63.7,29.99,East,92,0.0,0.0,78,0.00,CLR,,0.00,WeatherDisplay:10.37,2013-03-08 20:51:00,
2013-03-09 07:56:00,71.1,63.9,29.99,ENE,66,0.0,0.0,78,0.00,CLR,,0.00,WeatherDisplay:10.37,2013-03-08 20:56:00,
2013-03-09 08:01:00,71.2,64.0,30.00,ENE,62,0.0,0.0,78,0.00,CLR,,0.00,WeatherDisplay:10.37,2013-03-08 21:01:00,
2013-03-09 08:06:00,71.4,64.6,30.00,NE,43,0.0,0.0,79,0.00,CLR,,0.00,WeatherDisplay:10.37,2013-03-08 21:06:00,
2013-03-09 08:11:00,71.8,64.5,30.00,NNE,16,0.0,0.0,78,0.00,CLR,,0.00,WeatherDisplay:10.37,2013-03-08 21:11:00,
2013-03-09 08:16:00,72.0,64.8,30.00,NNW,343,0.0,0.0,78,0.00,CLR,,0.00,WeatherDisplay:10.37,2013-03-08 21:16:00,
2013-03-09 08:21:00,72.3,65.1,30.00,North,5,0.0,0.0,78,0.00,CLR,,0.00,WeatherDisplay:10.37,2013-03-08 21:21:00,
2013-03-09 08:26:00,72.7,65.1,30.01,NE,38,0.0,0.0,77,0.00,CLR,,0.00,WeatherDisplay:10.37,2013-03-08 21:26:00,
2013-03-09 08:31:00,72.9,65.2,30.00,NNE,33,0.0,0.0,77,0.00,CLR,,0.00,WeatherDisplay:10.37,2013-03-08 21:31:00,
2013-03-09 08:36:00,73.1,65.4,30.00,NNE,27,0.0,2.0,77,0.00,CLR,,0.00,WeatherDisplay:10.37,2013-03-08 21:36:00,
2013-03-09 08:41:00,73.3,65.6,30.01,NNE,27,0.0,2.0,77,0.00,CLR,,0.00,WeatherDisplay:10.37,2013-03-08 21:41:00,
2013-03-09 08:46:00,73.8,65.7,30.01,NE,43,0.0,2.0,76,0.00,CLR,,0.00,WeatherDisplay:10.37,2013-03-08 21:46:00,
2013-03-09 08:51:00,73.9,65.9,30.01,NE,46,1.0,2.0,76,0.00,CLR,,0.00,WeatherDisplay:10.37,2013-03-08 21:51:00,
2013-03-09 08:56:00,74.1,65.6,30.01,NNE,33,0.0,0.0,75,0.00,CLR,,0.00,WeatherDisplay:10.37,2013-03-08 21:56:00,
2013-03-09 09:01:00,74.2,65.8,30.01,NNE,33,0.0,3.0,75,0.00,CLR,,0.00,WeatherDisplay:10.37,2013-03-08 22:01:00,
2013-03-09 09:06:00,74.3,65.9,30.01,North,3,0.0,2.0,75,0.00,CLR,,0.00,WeatherDisplay:10.37,2013-03-08 22:06:00,
2013-03-09 09:11:00,74.5,66.0,30.01,North,350,0.0,2.0,75,0.00,CLR,,0.00,WeatherDisplay:10.37,2013-03-08 22:11:00,
2013-03-09 09:16:00,74.8,66.0,30.01,North,11,1.0,3.0,74,0.00,CLR,,0.00,WeatherDisplay:10.37,2013-03-08 22:16:00,
2013-03-09 09:21:00,75.0,66.2,30.01,North,7,1.0,2.0,74,0.00,CLR,,0.00,WeatherDisplay:10.37,2013-03-08 22:21:00,
2013-03-09 09:26:00,75.4,66.1,30.01,North,356,0.0,2.0,73,0.00,CLR,,0.00,WeatherDisplay:10.37,2013-03-08 22:26:00,
2013-03-09 09:31:00,75.9,66.6,30.01,North,10,1.0,5.0,73,0.00,CLR,,0.00,WeatherDisplay:10.37,2013-03-08 22:31:00,
2013-03-09 09:36:00,76.3,67.0,30.01,NE,38,0.0,4.0,73,0.00,CLR,,0.00,WeatherDisplay:10.37,2013-03-08 22:36:00,
2013-03-09 09:41:00,76.5,66.8,30.01,NE,49,0.0,3.0,72,0.00,CLR,,0.00,WeatherDisplay:10.37,2013-03-08 22:41:00,
2013-03-09 09:46:00,76.7,67.0,30.01,NNE,28,0.0,3.0,72,0.00,CLR,,0.00,WeatherDisplay:10.37,2013-03-08 22:46:00,
2013-03-09 09:51:00,76.8,66.7,30.01,NNE,26,1.0,3.0,71,0.00,CLR,,0.00,WeatherDisplay:10.37,2013-03-08 22:51:00,
2013-03-09 09:56:00,77.2,66.6,30.02,NE,35,0.0,2.0,70,0.00,CLR,,0.00,WeatherDisplay:10.37,2013-03-08 22:56:00,
2013-03-09 10:01:00,77.2,66.6,30.02,NE,48,0.0,2.0,70,0.00,CLR,,0.00,WeatherDisplay:10.37,2013-03-08 23:01:00,
2013-03-09 10:06:00,77.0,66.9,30.02,NE,41,1.0,3.0,71,0.00,CLR,,0.00,WeatherDisplay:10.37,2013-03-08 23:06:00,
2013-03-09 10:31:00,77.9,66.9,30.01,NNE,19,0.0,3.0,69,0.00,CLR,,0.00,WeatherDisplay:10.37,2013-03-08 23:31:00,
2013-03-09 10:36:00,78.0,66.5,30.01,North,357,0.0,2.0,68,0.00,CLR,,0.00,WeatherDisplay:10.37,2013-03-08 23:36:00,
2013-03-09 10:41:00,78.1,66.7,30.01,NE,38,0.0,2.0,68,0.00,CLR,,0.00,WeatherDisplay:10.37,2013-03-08 23:41:00,
2013-03-09 10:46:00,77.9,66.5,30.01,ENE,61,0.0,0.0,68,0.00,CLR,,0.00,WeatherDisplay:10.37,2013-03-08 23:46:00,
2013-03-09 10:51:00,77.9,66.5,30.01,ENE,57,2.0,5.0,68,0.00,CLR,,0.00,WeatherDisplay:10.37,2013-03-08 23:51:00,
2013-03-09 10:56:00,77.9,66.1,30.01,NNE,13,0.0,2.0,67,0.00,CLR,,0.00,WeatherDisplay:10.37,2013-03-08 23:56:00,
2013-03-09 11:01:00,77.9,66.1,30.01,NNE,21,0.0,6.0,67,0.00,CLR,,0.00,WeatherDisplay:10.37,2013-03-09 00:01:00,
2013-03-09 11:06:00,77.9,65.6,30.00,NNE,20,0.0,0.0,66,0.00,CLR,,0.00,WeatherDisplay:10.37,2013-03-09 00:06:00,
2013-03-09 11:11:00,78.1,65.4,30.00,North,4,1.0,3.0,65,0.00,CLR,,0.00,WeatherDisplay:10.37,2013-03-09 00:11:00,
2013-03-09 11:16:00,78.4,65.7,30.01,NE,36,2.0,6.0,65,0.00,CLR,,0.00,WeatherDisplay:10.37,2013-03-09 00:16:00,
2013-03-09 11:21:00,78.6,65.4,30.00,NNE,23,0.0,2.0,64,0.00,CLR,,0.00,WeatherDisplay:10.37,2013-03-09 00:21:00,
2013-03-09 11:26:00,79.1,65.9,30.01,NNE,18,1.0,5.0,64,0.00,CLR,,0.00,WeatherDisplay:10.37,2013-03-09 00:26:00,
2013-03-09 11:31:00,79.5,65.3,30.00,NE,39,0.0,2.0,62,0.00,CLR,,0.00,WeatherDisplay:10.37,2013-03-09 00:31:00,
2013-03-09 11:36:00,79.7,65.5,30.00,NE,43,2.0,8.0,62,0.00,CLR,,0.00,WeatherDisplay:10.37,2013-03-09 00:36:00,
2013-03-09 11:41:00,79.9,65.7,30.00,NE,50,3.0,9.0,62,0.00,CLR,,0.00,WeatherDisplay:10.37,2013-03-09 00:41:00,
2013-03-09 11:46:00,79.9,65.7,30.00,NE,56,2.0,4.0,62,0.00,CLR,,0.00,WeatherDisplay:10.37,2013-03-09 00:46:00,
2013-03-09 11:51:00,79.9,66.2,30.00,NE,43,2.0,6.0,63,0.00,CLR,,0.00,WeatherDisplay:10.37,2013-03-09 00:51:00,
2013-03-09 11:56:00,80.1,66.8,30.00,NE,38,6.0,9.0,64,0.00,CLR,,0.00,WeatherDisplay:10.37,2013-03-09 00:56:00,
2013-03-09 12:01:00,79.9,66.6,30.00,NNE,30,1.0,6.0,64,0.00,CLR,,0.00,WeatherDisplay:10.37,2013-03-09 01:01:00,
2013-03-09 12:06:00,79.9,66.6,30.00,NE,56,2.0,5.0,64,0.00,CLR,,0.00,WeatherDisplay:10.37,2013-03-09 01:06:00,
2013-03-09 12:11:00,79.9,66.6,30.00,NNW,341,3.0,6.0,64,0.00,CLR,,0.00,WeatherDisplay:10.37,2013-03-09 01:11:00,
2013-03-09 12:16:00,79.7,66.4,30.00,North,1,0.0,4.0,64,0.00,CLR,,0.00,WeatherDisplay:10.37,2013-03-09 01:16:00,
2013-03-09 12:21:00,79.6,66.3,29.99,ENE,57,2.0,6.0,64,0.00,CLR,,0.00,WeatherDisplay:10.37,2013-03-09 01:21:00,
2013-03-09 12:26:00,79.3,66.1,29.99,NE,55,1.0,6.0,64,0.00,CLR,,0.00,WeatherDisplay:10.37,2013-03-09 01:26:00,
2013-03-09 12:31:00,79.0,65.8,29.99,NE,55,0.0,6.0,64,0.00,CLR,,0.00,WeatherDisplay:10.37,2013-03-09 01:31:00,
2013-03-09 12:36:00,78.8,65.6,29.99,NE,55,0.0,4.0,64,0.00,CLR,,0.00,WeatherDisplay:10.37,2013-03-09 01:36:00,
2013-03-09 12:41:00,78.6,65.4,29.99,ENE,77,0.0,5.0,64,0.00,CLR,,0.00,WeatherDisplay:10.37,2013-03-09 01:41:00,
2013-03-09 12:46:00,78.6,65.4,29.99,East,86,1.0,5.0,64,0.00,CLR,,0.00,WeatherDisplay:10.37,2013-03-09 01:46:00,
2013-03-09 12:51:00,78.6,65.4,29.99,ENE,59,2.0,4.0,64,0.00,CLR,,0.00,WeatherDisplay:10.37,2013-03-09 01:51:00,
2013-03-09 12:56:00,78.5,65.3,29.98,NE,39,1.0,5.0,64,0.00,CLR,,0.00,WeatherDisplay:10.37,2013-03-09 01:56:00,
2013-03-09 13:02:00,78.4,64.8,29.98,NE,51,2.0,6.0,63,0.00,CLR,,0.00,WeatherDisplay:10.37,2013-03-09 02:02:00,
2013-03-09 13:11:00,78.3,64.6,29.98,ENE,65,1.0,4.0,63,0.00,CLR,,0.00,WeatherDisplay:10.37,2013-03-09 02:11:00,
2013-03-09 13:16:00,78.1,64.5,29.97,East,89,0.0,7.0,63,0.00,CLR,,0.00,WeatherDisplay:10.37,2013-03-09 02:16:00,
2013-03-09 13:21:00,77.9,64.3,29.97,East,82,1.0,7.0,63,0.00,CLR,,0.00,WeatherDisplay:10.37,2013-03-09 02:21:00,
2013-03-09 13:26:00,77.7,64.1,29.97,NE,42,0.0,3.0,63,0.00,CLR,,0.00,WeatherDisplay:10.37,2013-03-09 02:26:00,
2013-03-09 13:31:00,77.7,64.6,29.97,NE,36,1.0,5.0,64,0.00,CLR,,0.00,WeatherDisplay:10.37,2013-03-09 02:31:00,
2013-03-09 13:36:00,77.7,64.6,29.97,NE,45,0.0,5.0,64,0.00,CLR,,0.00,WeatherDisplay:10.37,2013-03-09 02:36:00,
2013-03-09 13:41:00,77.8,64.1,29.96,NE,35,0.0,6.0,63,0.00,CLR,,0.00,WeatherDisplay:10.37,2013-03-09 02:41:00,
2013-03-09 13:46:00,77.7,64.1,29.96,NNE,26,0.0,5.0,63,0.00,CLR,,0.00,WeatherDisplay:10.37,2013-03-09 02:46:00,
2013-03-09 13:51:00,77.7,64.1,29.96,NE,45,0.0,7.0,63,0.00,CLR,,0.00,WeatherDisplay:10.37,2013-03-09 02:51:00,
2013-03-09 13:56:00,77.7,64.1,29.96,NE,48,2.0,5.0,63,0.00,CLR,,0.00,WeatherDisplay:10.37,2013-03-09 02:56:00,
2013-03-09 14:01:00,77.7,64.1,29.97,NE,53,0.0,5.0,63,0.00,CLR,,0.00,WeatherDisplay:10.37,2013-03-09 03:01:00,
2013-03-09 14:06:00,77.8,64.2,29.96,NNE,32,2.0,5.0,63,0.00,CLR,,0.00,WeatherDisplay:10.37,2013-03-09 03:06:00,
2013-03-09 14:16:00,78.1,64.5,29.96,NNE,25,1.0,12.0,63,0.00,CLR,,0.00,WeatherDisplay:10.37,2013-03-09 03:16:00,
2013-03-09 14:21:00,78.4,65.2,29.96,NE,39,3.0,7.0,64,0.00,CLR,,0.00,WeatherDisplay:10.37,2013-03-09 03:21:00,
2013-03-09 14:26:00,78.6,65.0,29.95,ENE,74,1.0,7.0,63,0.00,CLR,,0.00,WeatherDisplay:10.37,2013-03-09 03:26:00,
2013-03-09 14:31:00,78.6,65.0,29.95,East,97,2.0,6.0,63,0.00,CLR,,0.00,WeatherDisplay:10.37,2013-03-09 03:31:00,
2013-03-09 14:41:00,78.6,64.5,29.95,NE,56,3.0,7.0,62,0.00,CLR,,0.00,WeatherDisplay:10.37,2013-03-09 03:41:00,
2013-03-09 14:46:00,78.6,64.5,29.95,NE,55,2.0,7.0,62,0.00,CLR,,0.00,WeatherDisplay:10.37,2013-03-09 03:46:00,
2013-03-09 14:51:00,78.7,64.5,29.94,ENE,68,3.0,10.0,62,0.00,CLR,,0.00,WeatherDisplay:10.37,2013-03-09 03:51:00,
2013-03-09 14:56:00,79.1,65.0,29.94,NE,47,2.0,7.0,62,0.00,CLR,,0.00,WeatherDisplay:10.37,2013-03-09 03:56:00,
2013-03-09 15:01:00,79.7,65.5,29.94,NE,34,5.0,10.0,62,0.00,CLR,,0.00,WeatherDisplay:10.37,2013-03-09 04:01:00,
2013-03-09 15:06:00,80.5,65.8,29.94,NNE,33,6.0,12.0,61,0.00,CLR,,0.00,WeatherDisplay:10.37,2013-03-09 04:06:00,
2013-03-09 15:11:00,81.2,66.0,29.94,NNE,17,2.0,6.0,60,0.00,CLR,,0.00,WeatherDisplay:10.37,2013-03-09 04:11:00,
2013-03-09 15:16:00,81.7,66.0,29.94,North,8,2.0,6.0,59,0.00,CLR,,0.00,WeatherDisplay:10.37,2013-03-09 04:16:00,
2013-03-09 15:21:00,82.2,66.5,29.93,NE,38,2.0,8.0,59,0.00,CLR,,0.00,WeatherDisplay:10.37,2013-03-09 04:21:00,
2013-03-09 15:26:00,82.2,66.0,29.93,NE,46,3.0,9.0,58,0.00,CLR,,0.00,WeatherDisplay:10.37,2013-03-09 04:26:00,
2013-03-09 15:31:00,82.6,65.8,29.93,NE,37,7.0,13.0,57,0.00,CLR,,0.00,WeatherDisplay:10.37,2013-03-09 04:31:00,
2013-03-09 15:36:00,82.5,65.7,29.93,NE,37,3.0,13.0,57,0.00,CLR,,0.00,WeatherDisplay:10.37,2013-03-09 04:36:00,
2013-03-09 15:41:00,82.6,65.3,29.93,NE,34,3.0,7.0,56,0.00,CLR,,0.00,WeatherDisplay:10.37,2013-03-09 04:41:00,
2013-03-09 15:46:00,82.6,65.3,29.93,NNE,27,2.0,6.0,56,0.00,CLR,,0.00,WeatherDisplay:10.37,2013-03-09 04:46:00,
2013-03-09 15:51:00,82.6,65.3,29.93,NE,41,3.0,7.0,56,0.00,CLR,,0.00,WeatherDisplay:10.37,2013-03-09 04:51:00,
2013-03-09 15:56:00,82.7,64.9,29.93,North,8,2.0,7.0,55,0.00,CLR,,0.00,WeatherDisplay:10.37,2013-03-09 04:56:00,
2013-03-09 16:01:00,82.8,64.9,29.93,North,9,3.0,14.0,55,0.00,CLR,,0.00,WeatherDisplay:10.37,2013-03-09 05:01:00,
2013-03-09 16:06:00,82.8,64.4,29.93,NNE,13,1.0,5.0,54,0.00,CLR,,0.00,WeatherDisplay:10.37,2013-03-09 05:06:00,
2013-03-09 16:11:00,82.6,64.3,29.92,ENE,77,1.0,7.0,54,0.00,CLR,,0.00,WeatherDisplay:10.37,2013-03-09 05:11:00,
2013-03-09 16:16:00,82.6,64.8,29.93,NE,54,2.0,4.0,55,0.00,CLR,,0.00,WeatherDisplay:10.37,2013-03-09 05:16:00,
2013-03-09 16:21:00,82.6,64.2,29.92,North,3,3.0,8.0,54,0.00,CLR,,0.00,WeatherDisplay:10.37,2013-03-09 05:21:00,
2013-03-09 16:26:00,82.2,63.9,29.93,NNE,13,3.0,8.0,54,0.00,CLR,,0.00,WeatherDisplay:10.37,2013-03-09 05:26:00,
2013-03-09 16:31:00,82.2,63.4,29.93,NE,42,6.0,12.0,53,0.00,CLR,,0.00,WeatherDisplay:10.37,2013-03-09 05:31:00,
2013-03-09 16:36:00,82.2,63.4,29.93,NE,36,6.0,14.0,53,0.00,CLR,,0.00,WeatherDisplay:10.37,2013-03-09 05:36:00,
2013-03-09 16:41:00,82.0,62.7,29.93,North,8,5.0,14.0,52,0.00,CLR,,0.00,WeatherDisplay:10.37,2013-03-09 05:41:00,
2013-03-09 16:46:00,82.0,62.7,29.93,North,355,2.0,4.0,52,0.00,CLR,,0.00,WeatherDisplay:10.37,2013-03-09 05:46:00,
2013-03-09 16:51:00,82.0,63.2,29.93,North,4,3.0,10.0,53,0.00,CLR,,0.00,WeatherDisplay:10.37,2013-03-09 05:51:00,
2013-03-09 16:56:00,81.7,62.3,29.93,NE,35,1.0,8.0,52,0.00,CLR,,0.00,WeatherDisplay:10.37,2013-03-09 05:56:00,
2013-03-09 17:01:00,81.7,62.3,29.93,NNE,13,3.0,12.0,52,0.00,CLR,,0.00,WeatherDisplay:10.37,2013-03-09 06:01:00,
2013-03-09 17:06:00,81.7,62.3,29.93,NNE,28,1.0,7.0,52,0.00,CLR,,0.00,WeatherDisplay:10.37,2013-03-09 06:06:00,
2013-03-09 17:11:00,81.5,62.2,29.93,North,4,3.0,9.0,52,0.00,CLR,,0.00,WeatherDisplay:10.37,2013-03-09 06:11:00,
2013-03-09 17:16:00,81.4,62.1,29.93,NNW,340,1.0,9.0,52,0.00,CLR,,0.00,WeatherDisplay:10.37,2013-03-09 06:16:00,
2013-03-09 17:21:00,81.2,62.5,29.93,North,10,2.0,9.0,53,0.00,CLR,,0.00,WeatherDisplay:10.37,2013-03-09 06:21:00,
2013-03-09 17:26:00,81.1,62.9,29.93,North,11,2.0,9.0,54,0.00,CLR,,0.00,WeatherDisplay:10.37,2013-03-09 06:26:00,
2013-03-09 17:31:00,81.0,62.8,29.93,NNE,33,2.0,6.0,54,0.00,CLR,,0.00,WeatherDisplay:10.37,2013-03-09 06:31:00,
2013-03-09 17:36:00,80.6,62.4,29.93,NNE,26,2.0,6.0,54,0.00,CLR,,0.00,WeatherDisplay:10.37,2013-03-09 06:36:00,
2013-03-09 17:41:00,80.4,62.2,29.93,North,3,2.0,5.0,54,0.00,CLR,,0.00,WeatherDisplay:10.37,2013-03-09 06:41:00,
2013-03-09 17:46:00,80.1,62.5,29.93,NE,54,3.0,12.0,55,0.00,CLR,,0.00,WeatherDisplay:10.37,2013-03-09 06:46:00,
2013-03-09 17:51:00,79.6,62.6,29.93,NE,45,2.0,10.0,56,0.00,CLR,,0.00,WeatherDisplay:10.37,2013-03-09 06:51:00,
2013-03-09 17:56:00,79.3,62.3,29.93,NNE,28,6.0,11.0,56,0.00,CLR,,0.00,WeatherDisplay:10.37,2013-03-09 06:56:00,
2013-03-09 18:01:00,79.3,62.8,29.94,NE,41,3.0,9.0,57,0.00,CLR,,0.00,WeatherDisplay:10.37,2013-03-09 07:01:00,
2013-03-09 18:06:00,79.2,63.1,29.94,NNE,31,3.0,6.0,58,0.00,CLR,,0.00,WeatherDisplay:10.37,2013-03-09 07:06:00,
2013-03-09 18:11:00,79.0,62.9,29.94,NE,40,1.0,6.0,58,0.00,CLR,,0.00,WeatherDisplay:10.37,2013-03-09 07:11:00,
2013-03-09 18:16:00,78.7,63.1,29.94,NE,48,1.0,8.0,59,0.00,CLR,,0.00,WeatherDisplay:10.37,2013-03-09 07:16:00,
2013-03-09 18:21:00,78.6,63.1,29.93,East,85,2.0,5.0,59,0.00,CLR,,0.00,WeatherDisplay:10.37,2013-03-09 07:21:00,
2013-03-09 18:26:00,78.4,63.4,29.93,NE,46,1.0,7.0,60,0.00,CLR,,0.00,WeatherDisplay:10.37,2013-03-09 07:26:00,
2013-03-09 18:31:00,78.1,63.1,29.93,NNE,26,3.0,7.0,60,0.00,CLR,,0.00,WeatherDisplay:10.37,2013-03-09 07:31:00,
2013-03-09 18:36:00,77.9,63.4,29.93,ENE,62,5.0,8.0,61,0.00,CLR,,0.00,WeatherDisplay:10.37,2013-03-09 07:36:00,
2013-03-09 18:41:00,77.7,63.2,29.93,ENE,69,2.0,6.0,61,0.00,CLR,,0.00,WeatherDisplay:10.37,2013-03-09 07:41:00,
2013-03-09 18:46:00,77.5,63.5,29.93,ENE,61,3.0,7.0,62,0.00,CLR,,0.00,WeatherDisplay:10.37,2013-03-09 07:46:00,
2013-03-09 18:51:00,77.4,63.3,29.93,ENE,60,2.0,5.0,62,0.00,CLR,,0.00,WeatherDisplay:10.37,2013-03-09 07:51:00,
2013-03-09 18:56:00,77.2,63.6,29.93,NE,35,2.0,7.0,63,0.00,CLR,,0.00,WeatherDisplay:10.37,2013-03-09 07:56:00,
2013-03-09 19:01:00,76.8,63.3,29.93,ENE,58,1.0,4.0,63,0.00,CLR,,0.00,WeatherDisplay:10.37,2013-03-09 08:01:00,
2013-03-09 19:06:00,76.8,63.3,29.94,NE,46,2.0,7.0,63,0.00,CLR,,0.00,WeatherDisplay:10.37,2013-03-09 08:06:00,
2013-03-09 19:11:00,76.6,63.5,29.94,NE,48,5.0,8.0,64,0.00,CLR,,0.00,WeatherDisplay:10.37,2013-03-09 08:11:00,
2013-03-09 19:16:00,76.4,63.3,29.94,NE,54,1.0,5.0,64,0.00,CLR,,0.00,WeatherDisplay:10.37,2013-03-09 08:16:00,
2013-03-09 19:21:00,76.3,63.2,29.94,East,95,3.0,8.0,64,0.00,CLR,,0.00,WeatherDisplay:10.37,2013-03-09 08:21:00,
2013-03-09 19:26:00,76.1,63.5,29.94,ENE,71,1.0,6.0,65,0.00,CLR,,0.00,WeatherDisplay:10.37,2013-03-09 08:26:00,
2013-03-09 19:31:00,75.9,63.7,29.94,NE,46,0.0,6.0,66,0.00,CLR,,0.00,WeatherDisplay:10.37,2013-03-09 08:31:00,
2013-03-09 19:36:00,75.7,64.0,29.94,NE,55,2.0,3.0,67,0.00,CLR,,0.00,WeatherDisplay:10.37,2013-03-09 08:36:00,
2013-03-09 19:41:00,75.7,64.0,29.94,NE,52,2.0,7.0,67,0.00,CLR,,0.00,WeatherDisplay:10.37,2013-03-09 08:41:00,
2013-03-09 19:46:00,75.6,63.8,29.94,ENE,66,1.0,5.0,67,0.00,CLR,,0.00,WeatherDisplay:10.37,2013-03-09 08:46:00,
2013-03-09 19:51:00,75.4,64.1,29.94,NE,49,2.0,4.0,68,0.00,CLR,,0.00,WeatherDisplay:10.37,2013-03-09 08:51:00,
2013-03-09 19:56:00,75.4,64.1,29.94,NE,42,5.0,9.0,68,0.00,CLR,,0.00,WeatherDisplay:10.37,2013-03-09 08:56:00,
2013-03-09 20:01:00,75.0,63.7,29.95,NE,45,6.0,9.0,68,0.00,CLR,,0.00,WeatherDisplay:10.37,2013-03-09 09:01:00,
2013-03-09 20:06:00,75.0,63.7,29.95,NE,43,2.0,13.0,68,0.00,CLR,,0.00,WeatherDisplay:10.37,2013-03-09 09:06:00,
2013-03-09 20:11:00,74.8,64.0,29.95,ENE,57,5.0,8.0,69,0.00,CLR,,0.00,WeatherDisplay:10.37,2013-03-09 09:11:00,
2013-03-09 20:16:00,74.8,64.0,29.95,NE,40,1.0,5.0,69,0.00,CLR,,0.00,WeatherDisplay:10.37,2013-03-09 09:16:00,
2013-03-09 20:21:00,74.6,63.7,29.95,NNE,12,0.0,5.0,69,0.00,CLR,,0.00,WeatherDisplay:10.37,2013-03-09 09:21:00,
2013-03-09 20:26:00,74.5,63.6,29.95,NNW,348,2.0,4.0,69,0.00,CLR,,0.00,WeatherDisplay:10.37,2013-03-09 09:26:00,
2013-03-09 20:31:00,74.4,63.6,29.95,North,3,1.0,3.0,69,0.00,CLR,,0.00,WeatherDisplay:10.37,2013-03-09 09:31:00,
2013-03-09 20:36:00,74.3,63.5,29.96,NNE,15,2.0,5.0,69,0.00,CLR,,0.00,WeatherDisplay:10.37,2013-03-09 09:36:00,
2013-03-09 20:41:00,74.3,63.5,29.96,North,3,2.0,6.0,69,0.00,CLR,,0.00,WeatherDisplay:10.37,2013-03-09 09:41:00,
2013-03-09 20:46:00,74.1,63.7,29.96,North,10,3.0,7.0,70,0.00,CLR,,0.00,WeatherDisplay:10.37,2013-03-09 09:46:00,
2013-03-09 20:51:00,74.1,63.7,29.96,NNE,17,0.0,4.0,70,0.00,CLR,,0.00,WeatherDisplay:10.37,2013-03-09 09:51:00,
2013-03-09 20:56:00,74.1,63.7,29.96,NNE,13,1.0,3.0,70,0.00,CLR,,0.00,WeatherDisplay:10.37,2013-03-09 09:56:00,
2013-03-09 21:01:00,74.0,63.6,29.96,NNE,17,2.0,6.0,70,0.00,CLR,,0.00,WeatherDisplay:10.37,2013-03-09 10:01:00,
2013-03-09 21:06:00,73.9,63.5,29.97,NNE,18,2.0,6.0,70,0.00,CLR,,0.00,WeatherDisplay:10.37,2013-03-09 10:06:00,
2013-03-09 21:11:00,73.9,63.5,29.97,NNE,23,1.0,6.0,70,0.00,CLR,,0.00,WeatherDisplay:10.37,2013-03-09 10:11:00,
2013-03-09 21:16:00,73.9,63.5,29.97,NE,35,3.0,8.0,70,0.00,CLR,,0.00,WeatherDisplay:10.37,2013-03-09 10:16:00,
2013-03-09 21:21:00,73.8,63.4,29.97,NE,36,0.0,7.0,70,0.00,CLR,,0.00,WeatherDisplay:10.37,2013-03-09 10:21:00,
2013-03-09 21:26:00,73.6,63.2,29.97,NNE,32,1.0,5.0,70,0.00,CLR,,0.00,WeatherDisplay:10.37,2013-03-09 10:26:00,
2013-03-09 21:31:00,73.6,63.6,29.97,NNE,25,0.0,7.0,71,0.00,CLR,,0.00,WeatherDisplay:10.37,2013-03-09 10:31:00,
2013-03-09 21:36:00,73.6,63.6,29.97,NNE,26,1.0,6.0,71,0.00,CLR,,0.00,WeatherDisplay:10.37,2013-03-09 10:36:00,
2013-03-09 21:41:00,73.6,63.6,29.97,NNE,23,1.0,7.0,71,0.00,CLR,,0.00,WeatherDisplay:10.37,2013-03-09 10:41:00,
2013-03-09 21:46:00,73.4,63.4,29.97,NE,34,0.0,6.0,71,0.00,CLR,,0.00,WeatherDisplay:10.37,2013-03-09 10:46:00,
2013-03-09 21:51:00,73.4,63.4,29.97,NE,49,3.0,5.0,71,0.00,CLR,,0.00,WeatherDisplay:10.37,2013-03-09 10:51:00,
2013-03-09 21:56:00,73.2,63.2,29.97,NE,37,1.0,5.0,71,0.00,CLR,,0.00,WeatherDisplay:10.37,2013-03-09 10:56:00,
2013-03-09 22:01:00,73.2,63.2,29.98,NNE,33,1.0,5.0,71,0.00,CLR,,0.00,WeatherDisplay:10.37,2013-03-09 11:01:00,
2013-03-09 22:06:00,73.2,63.2,29.97,NE,36,2.0,5.0,71,0.00,CLR,,0.00,WeatherDisplay:10.37,2013-03-09 11:06:00,
2013-03-09 22:11:00,73.2,63.2,29.97,NE,48,1.0,4.0,71,0.00,CLR,,0.00,WeatherDisplay:10.37,2013-03-09 11:11:00,
2013-03-09 22:16:00,73.0,63.1,29.98,NE,53,2.0,6.0,71,0.00,CLR,,0.00,WeatherDisplay:10.37,2013-03-09 11:16:00,
2013-03-09 22:21:00,73.0,63.0,29.97,NE,50,0.0,6.0,71,0.00,CLR,,0.00,WeatherDisplay:10.37,2013-03-09 11:21:00,
2013-03-09 22:26:00,72.9,62.9,29.97,NE,49,1.0,8.0,71,0.00,CLR,,0.00,WeatherDisplay:10.37,2013-03-09 11:26:00,
2013-03-09 22:31:00,72.7,62.7,29.97,NE,37,3.0,8.0,71,0.00,CLR,,0.00,WeatherDisplay:10.37,2013-03-09 11:31:00,
2013-03-09 22:36:00,72.7,62.7,29.97,NNE,32,2.0,6.0,71,0.00,CLR,,0.00,WeatherDisplay:10.37,2013-03-09 11:36:00,
2013-03-09 22:41:00,72.5,62.6,29.96,NNE,23,5.0,6.0,71,0.00,CLR,,0.00,WeatherDisplay:10.37,2013-03-09 11:41:00,
2013-03-09 22:46:00,72.3,62.4,29.96,NE,46,2.0,6.0,71,0.00,CLR,,0.00,WeatherDisplay:10.37,2013-03-09 11:46:00,
2013-03-09 22:51:00,72.3,62.4,29.96,NE,49,3.0,7.0,71,0.00,CLR,,0.00,WeatherDisplay:10.37,2013-03-09 11:51:00,
2013-03-09 22:56:00,72.3,62.4,29.96,NE,39,1.0,6.0,71,0.00,CLR,,0.00,WeatherDisplay:10.37,2013-03-09 11:56:00,
2013-03-09 23:01:00,72.2,62.3,29.96,NE,34,2.0,5.0,71,0.00,CLR,,0.00,WeatherDisplay:10.37,2013-03-09 12:01:00,
2013-03-09 23:06:00,72.3,62.3,29.96,North,9,0.0,3.0,71,0.00,CLR,,0.00,WeatherDisplay:10.37,2013-03-09 12:06:00,
2013-03-09 23:11:00,72.1,62.2,29.96,NNE,12,0.0,4.0,71,0.00,CLR,,0.00,WeatherDisplay:10.37,2013-03-09 12:11:00,
2013-03-09 23:16:00,72.1,62.2,29.96,NNE,30,0.0,4.0,71,0.00,CLR,,0.00,WeatherDisplay:10.37,2013-03-09 12:16:00,
2013-03-09 23:21:00,72.1,62.2,29.96,NNE,28,1.0,6.0,71,0.00,CLR,,0.00,WeatherDisplay:10.37,2013-03-09 12:21:00,
2013-03-09 23:26:00,72.0,62.0,29.96,NNE,22,0.0,4.0,71,0.00,CLR,,0.00,WeatherDisplay:10.37,2013-03-09 12:26:00,
2013-03-09 23:31:00,72.0,62.0,29.96,NNE,20,0.0,4.0,71,0.00,CLR,,0.00,WeatherDisplay:10.37,2013-03-09 12:31:00,
2013-03-09 23:36:00,71.8,62.3,29.96,NNE,30,0.0,0.0,72,0.00,CLR,,0.00,WeatherDisplay:10.37,2013-03-09 12:36:00,
2013-03-09 23:41:00,71.8,62.3,29.96,NE,39,0.0,4.0,72,0.00,CLR,,0.00,WeatherDisplay:10.37,2013-03-09 12:41:00,
2013-03-09 23:46:00,71.8,62.3,29.96,NE,46,0.0,0.0,72,0.00,CLR,,0.00,WeatherDisplay:10.37,2013-03-09 12:46:00,
2013-03-09 23:51:00,71.8,62.3,29.95,NE,52,0.0,2.0,72,0.00,CLR,,0.00,WeatherDisplay:10.37,2013-03-09 12:51:00,
2013-03-09 23:56:00,71.4,61.9,29.95,NNE,22,0.0,0.0,72,0.00,CLR,,0.00,WeatherDisplay:10.37,2013-03-09 12:56:00,